Date,TemperatureHighF,TemperatureAvgF,TemperatureLowF,DewpointHighF,DewpointAvgF,DewpointLowF,HumidityHigh,HumidityAvg,HumidityLow,PressureMaxIn,PressureMinIn,WindSpeedMaxMPH,WindSpeedAvgMPH,GustSpeedMaxMPH,PrecipitationSumIn
2013-2-1,73.0,43.9,26.0,41.0,33.2,26.0,100,75,23,0.00,40.00,0,-999,0,0.00
2013-2-2,66.0,50.2,35.0,43.0,34.6,-99.9,100,68,22,0.00,40.00,0,-999,0,0.00
2013-2-3,70.0,49.5,31.0,43.0,33.9,27.0,100,64,22,0.00,40.00,0,-999,0,0.00
2013-2-4,73.0,43.8,24.0,43.0,28.2,-99.9,100,71,18,0.00,40.00,0,-999,0,0.00
2013-2-5,69.0,44.1,25.0,48.0,27.4,-99.9,100,75,30,0.00,40.00,0,-999,0,0.00
2013-2-6,68.0,41.5,25.0,47.0,29.8,-99.9,100,78,20,0.00,40.00,0,-999,0,0.00
2013-2-7,58.0,35.9,17.0,44.0,30.5,17.0,100,85,32,0.00,40.00,0,-999,0,0.00
2013-2-8,45.0,32.1,20.0,38.0,29.1,20.0,100,89,63,0.00,40.00,0,-999,0,0.00
2013-2-9,50.0,37.5,22.0,33.0,26.4,18.0,100,68,31,0.00,40.00,0,-999,0,0.00
2013-2-10,50.0,32.9,16.0,39.0,28.0,16.0,100,85,53,0.00,40.00,0,-999,0,0.00
2013-2-11,55.0,39.1,17.0,34.0,26.3,17.0,100,66,32,0.00,40.00,0,-999,0,0.00
2013-2-12,59.0,35.4,17.0,36.0,25.0,17.0,100,75,23,0.00,40.00,0,-999,0,0.00
2013-2-13,67.0,40.5,19.0,33.0,26.5,18.0,100,68,17,0.00,40.00,0,-999,0,0.00
2013-2-14,69.0,41.3,21.0,32.0,25.0,21.0,100,64,19,0.00,40.00,0,-999,0,0.00
2013-2-15,71.0,53.5,29.0,27.0,21.8,16.0,83,34,13,0.00,40.00,0,-999,0,0.00
2013-2-16,70.0,40.3,27.0,25.0,21.6,19.0,79,54,15,0.00,40.00,0,-999,0,0.00
2013-2-17,69.0,39.5,19.0,41.0,24.0,17.0,95,65,14,0.00,40.00,0,-999,0,0.00
2013-2-18,57.0,33.6,18.0,46.0,31.4,18.0,100,93,64,0.00,40.00,0,-999,0,0.00
2013-2-19,46.0,38.5,34.0,39.0,36.3,33.0,100,93,70,0.00,40.00,0,-999,0,0.00
2013-2-20,51.0,41.4,30.0,25.0,18.3,-99.9,80,47,30,0.00,40.00,0,-999,0,0.00
2013-2-21,53.0,34.9,18.0,34.0,24.0,18.0,100,70,27,0.00,40.00,0,-999,0,0.00
2013-2-22,60.0,38.3,18.0,35.0,25.9,18.0,100,69,28,0.00,40.00,0,-999,0,0.00
2013-2-23,64.0,45.3,26.0,35.0,23.9,3.0,92,50,16,0.00,40.00,0,-999,0,0.00
2013-2-24,57.0,40.2,23.0,28.0,15.0,7.0,87,43,15,0.00,40.00,0,-999,0,0.00
2013-2-25,63.0,45.0,19.0,28.0,20.5,12.0,83,41,21,0.00,40.00,0,-999,0,0.00
2013-2-26,69.0,49.3,21.0,28.0,16.4,-99.9,85,36,18,0.00,40.00,0,-999,0,0.00
2013-2-27,67.0,51.3,22.0,21.0,17.6,13.0,74,31,14,0.00,40.00,0,-999,0,0.00
2013-2-28,70.0,44.7,21.0,25.0,17.5,-99.9,79,46,13,0.00,40.00,0,-999,0,0.00